Visibility
15.0 15.0 15.0 15.0 15.0 15.0 15.0 15.0 15.0 15.0 15.0 15.0 15.0 15.0 15.0 15.0 15.0 15.0 15.0 1.5 7.1 15.0
15.0 15.0 15.0 15.0 15.0 15.0 15.0 15.0 15.0 15.0 15.0 15.0 15.0 15.0 15.0 2.7 12.9 6.6 6.9 0.9 14.8 3.3
15.0 15.0 15.0 15.0 15.0 15.0 15.0 15.0 15.0 15.0 15.0 15.0 15.0 15.0 15.0 15.0 15.0 15.0 15.0 15.0 15.0 15.0
15.0 15.0 15.0 15.0 15.0 15.0 15.0 15.0 15.0 15.0 15.0 15.0 15.0 15.0 11.3 6.3 15.0 5.7 15.0 13.4 0.2 0.8
15.0 15.0 15.0 15.0 15.0 15.0 15.0 15.0 15.0 15.0 15.0 15.0 15.0 15.0 0.6 0.5 15.0 15.0 0.3 13.5 15.0 14.8
15.0 15.0 15.0 15.0 15.0 15.0 15.0 15.0 15.0 15.0 15.0 15.0 15.0 12.2 15.0 13.2 15.0 15.0 15.0 15.0 15.0 15.0
15.0 15.0 15.0 15.0 15.0 15.0 15.0 15.0 8.4 1.1 15.0 13.2 10.9 14.0 3.9 8.1 15.0 15.0 15.0 13.8 15.0 15.0
15.0 15.0 15.0 15.0 15.0 15.0 15.0 15.0 15.0 15.0 9.7 12.2 3.3 4.1 7.2 15.0 15.0 14.1 15.0 11.8 15.0 15.0
15.0 15.0 15.0 15.0 15.0 15.0 15.0 15.0 15.0 15.0 8.6 0.4 0.1 11.2 15.0 15.0 5.9 15.0 15.0 0.2 14.9 15.0
15.0 15.0 15.0 15.0 15.0 15.0 15.0 15.0 15.0 14.1 15.0 0.1 0.1 1.7 14.6 15.0 11.7 4.2 11.5 12.4 14.8 11.6
15.0 15.0 15.0 15.0 15.0 15.0 15.0 15.0 15.0 11.4 0.1 0.1 0.1 0.1 14.6 15.0 10.6 3.7 1.8 14.9 8.0 13.9
15.0 15.0 15.0 15.0 15.0 15.0 15.0 15.0 5.0 0.3 0.1 0.1 0.3 0.1 0.4 1.2 0.1 0.1 0.1 2.4 15.0 15.0
15.0 15.0 15.0 15.0 15.0 15.0 1.8 0.2 0.1 0.1 13.7 13.9 0.2 2.9 0.2 0.3 0.2 0.1 0.2 12.9 15.0 15.0
15.0 15.0 15.0 15.0 15.0 15.0 12.4 0.1 0.0 0.0 0.0 0.1 1.0 0.2 1.4 0.3 0.5 3.4 0.6 7.1 15.0 15.0